When you browse on this site, cookies collect data to enhance your experience and personalize the content and advertising you see.
Visit our Privacy Policy to learn more. By continuing to use the site, you agree to this use of cookies and data.

Meteo pe oră la Gokak

Astăzi, 5 August, Miercuri

Timp Temperatura Precipitaţii Vânt Presiune Umiditate
00:00 +24°C° 0.9 mm 8 m/s 696 mmHg 89%
01:00 +24°C° 0.9 mm 8 m/s 695 mmHg 90%
02:00 +24°C° 0.9 mm 8 m/s 695 mmHg 90%
03:00 +24°C° 0.8 mm 8 m/s 695 mmHg 90%
04:00 +24°C° 0.8 mm 8 m/s 695 mmHg 89%
05:00 +24°C° 0.8 mm 9 m/s 694 mmHg 89%
06:00 +24°C° 0.8 mm 9 m/s 695 mmHg 89%
07:00 +24°C° 0.8 mm 9 m/s 695 mmHg 88%
08:00 +24°C° 0.8 mm 10 m/s 696 mmHg 88%
09:00 +24°C° 0.6 mm 10 m/s 696 mmHg 87%
10:00 +24°C° 0.6 mm 10 m/s 696 mmHg 86%
11:00 +26°C° 0.6 mm 10 m/s 696 mmHg 86%
12:00 +24°C° 0.4 mm 10 m/s 696 mmHg 86%
13:00 +24°C° 0.4 mm 10 m/s 696 mmHg 86%
14:00 +24°C° 0.4 mm 10 m/s 695 mmHg 87%
15:00 +24°C° 0.2 mm 10 m/s 695 mmHg 85%
16:00 +24°C° 0.2 mm 9 m/s 695 mmHg 84%
17:00 +26°C° 0.2 mm 9 m/s 695 mmHg 83%
18:00 +24°C° 0.1 mm 9 m/s 696 mmHg 84%
19:00 +24°C° 0.1 mm 8 m/s 696 mmHg 85%
20:00 +24°C° 0.1 mm 8 m/s 697 mmHg 86%
21:00 +24°C° 0.1 mm 7 m/s 697 mmHg 86%
22:00 +24°C° 0.1 mm 7 m/s 697 mmHg 87%
23:00 +24°C° 0.1 mm 7 m/s 697 mmHg 87%

Mâine, 6 August, Joi

Timp Temperatura Precipitaţii Vânt Presiune Umiditate
00:00 +23°C° 0.1 mm 7 m/s 696 mmHg 87%
01:00 +23°C° 0.1 mm 7 m/s 696 mmHg 87%
02:00 +23°C° 0.1 mm 7 m/s 695 mmHg 87%
03:00 +23°C° 0.1 mm 7 m/s 695 mmHg 87%
04:00 +23°C° 0.1 mm 7 m/s 695 mmHg 88%
05:00 +23°C° 0.1 mm 6 m/s 695 mmHg 88%
06:00 +24°C° 0.1 mm 7 m/s 696 mmHg 86%
07:00 +24°C° 0.1 mm 8 m/s 696 mmHg 84%
08:00 +26°C° 0.1 mm 9 m/s 697 mmHg 82%
09:00 +26°C° 0.2 mm 9 m/s 697 mmHg 80%
10:00 +27°C° 0.2 mm 10 m/s 697 mmHg 79%
11:00 +28°C° 0.2 mm 10 m/s 697 mmHg 77%
12:00 +28°C° 0.4 mm 10 m/s 697 mmHg 76%
13:00 +27°C° 0.4 mm 10 m/s 697 mmHg 76%
14:00 +27°C° 0.4 mm 10 m/s 697 mmHg 76%
15:00 +27°C° 0.2 mm 9 m/s 696 mmHg 78%
16:00 +27°C° 0.2 mm 9 m/s 696 mmHg 79%
17:00 +26°C° 0.2 mm 8 m/s 696 mmHg 81%
18:00 +26°C° 0.2 mm 8 m/s 696 mmHg 83%
19:00 +26°C° 0.2 mm 7 m/s 697 mmHg 85%
20:00 +24°C° 0.2 mm 7 m/s 698 mmHg 87%
21:00 +24°C° 0.2 mm 6 m/s 698 mmHg 87%
22:00 +24°C° 0.2 mm 6 m/s 698 mmHg 87%
23:00 +25°C° 0.2 mm 5 m/s 698 mmHg 88%

Poimâine, 7 August, Vineri

Timp Temperatura Precipitaţii Vânt Presiune Umiditate
00:00 +24°C° 0.2 mm 6 m/s 698 mmHg 88%
01:00 +24°C° 0.2 mm 6 m/s 698 mmHg 87%
02:00 +24°C° 0.2 mm 7 m/s 698 mmHg 87%
03:00 +24°C° 0.1 mm 6 m/s 698 mmHg 88%
04:00 +24°C° 0.1 mm 6 m/s 698 mmHg 88%
05:00 +24°C° 0.1 mm 6 m/s 698 mmHg 88%
06:00 +24°C° 0.1 mm 7 m/s 698 mmHg 86%
07:00 +26°C° 0.1 mm 7 m/s 699 mmHg 84%
08:00 +26°C° 0.1 mm 8 m/s 700 mmHg 82%
09:00 +26°C° 0.1 mm 8 m/s 700 mmHg 81%
10:00 +27°C° 0.1 mm 9 m/s 700 mmHg 80%
11:00 +27°C° 0.1 mm 9 m/s 700 mmHg 79%
12:00 +27°C° 0.1 mm 9 m/s 700 mmHg 78%
13:00 +27°C° 0.1 mm 10 m/s 700 mmHg 76%
14:00 +28°C° 0.1 mm 10 m/s 699 mmHg 75%
15:00 +28°C° 0.2 mm 10 m/s 699 mmHg 76%
16:00 +27°C° 0.2 mm 9 m/s 699 mmHg 77%
17:00 +27°C° 0.2 mm 9 m/s 699 mmHg 77%
18:00 +26°C° 0.1 mm 8 m/s 699 mmHg 80%
19:00 +26°C° 0.1 mm 7 m/s 700 mmHg 82%
20:00 +24°C° 0.1 mm 6 m/s 700 mmHg 84%
21:00 +24°C° 0.1 mm 6 m/s 701 mmHg 85%
22:00 +24°C° 0.1 mm 6 m/s 701 mmHg 86%
23:00 +24°C° 0.1 mm 6 m/s 701 mmHg 87%

8 August, Sâmbătă

Timp Temperatura Precipitaţii Vânt Presiune Umiditate
00:00 +24°C° 0.1 mm 6 m/s 701 mmHg 87%
01:00 +24°C° 0.1 mm 6 m/s 700 mmHg 87%
02:00 +24°C° 0.1 mm 6 m/s 700 mmHg 87%
03:00 +25°C° 0.1 mm 5 m/s 700 mmHg 88%
04:00 +25°C° 0.1 mm 5 m/s 700 mmHg 88%
05:00 +23°C° 0.1 mm 5 m/s 700 mmHg 88%
06:00 +25°C° 0.3 mm 5 m/s 700 mmHg 87%
07:00 +25°C° 0.3 mm 5 m/s 701 mmHg 85%
08:00 +26°C° 0.3 mm 6 m/s 701 mmHg 84%
09:00 +26°C° 0.2 mm 6 m/s 701 mmHg 81%
10:00 +27°C° 0.2 mm 7 m/s 701 mmHg 77%
11:00 +28°C° 0.2 mm 7 m/s 701 mmHg 74%
12:00 +28°C° 0.2 mm 7 m/s 701 mmHg 74%
13:00 +28°C° 0.2 mm 7 m/s 700 mmHg 74%
14:00 +28°C° 0.2 mm 7 m/s 700 mmHg 74%
15:00 +27°C° 0.1 mm 7 m/s 699 mmHg 77%
16:00 +27°C° 0.1 mm 6 m/s 699 mmHg 79%
17:00 +26°C° 0.1 mm 6 m/s 699 mmHg 82%
18:00 +26°C° 0 mm 6 m/s 699 mmHg 83%
19:00 +24°C° 0 mm 6 m/s 700 mmHg 84%
20:00 +24°C° 0 mm 6 m/s 700 mmHg 86%
21:00 +24°C° 0 mm 6 m/s 700 mmHg 86%
22:00 +25°C° 0 mm 5 m/s 701 mmHg 87%
23:00 +25°C° 0 mm 5 m/s 701 mmHg 87%

9 August, Duminică

Timp Temperatura Precipitaţii Vânt Presiune Umiditate
00:00 +23°C° 0 mm 5 m/s 700 mmHg 87%
01:00 +23°C° 0 mm 5 m/s 699 mmHg 87%
02:00 +23°C° 0 mm 5 m/s 699 mmHg 88%
03:00 +23°C° 0.1 mm 5 m/s 699 mmHg 87%
04:00 +23°C° 0.1 mm 5 m/s 699 mmHg 87%
05:00 +23°C° 0.1 mm 5 m/s 699 mmHg 87%
06:00 +24°C° 0.1 mm 6 m/s 699 mmHg 85%
07:00 +24°C° 0.1 mm 6 m/s 700 mmHg 83%
08:00 +26°C° 0.1 mm 7 m/s 700 mmHg 81%
09:00 +27°C° 0.1 mm 7 m/s 700 mmHg 78%
10:00 +28°C° 0.1 mm 7 m/s 700 mmHg 74%
11:00 +29°C° 0.1 mm 7 m/s 700 mmHg 70%
12:00 +29°C° 0.5 mm 8 m/s 700 mmHg 70%
13:00 +29°C° 0.5 mm 8 m/s 699 mmHg 70%
14:00 +29°C° 0.5 mm 9 m/s 699 mmHg 70%
15:00 +28°C° 0.2 mm 9 m/s 698 mmHg 72%
16:00 +28°C° 0.2 mm 8 m/s 698 mmHg 74%
17:00 +27°C° 0.2 mm 8 m/s 698 mmHg 76%
18:00 +27°C° 0 mm 7 m/s 699 mmHg 78%
19:00 +26°C° 0 mm 6 m/s 699 mmHg 81%
20:00 +24°C° 0 mm 6 m/s 699 mmHg 84%
21:00 +25°C° 0 mm 5 m/s 699 mmHg 85%
22:00 +25°C° 0 mm 5 m/s 699 mmHg 85%
23:00 +25°C° 0 mm 5 m/s 700 mmHg 86%

10 August, Luni

Timp Temperatura Precipitaţii Vânt Presiune Umiditate
00:00 +25°C° 0.1 mm 5 m/s 699 mmHg 86%
01:00 +25°C° 0.1 mm 5 m/s 699 mmHg 87%
02:00 +25°C° 0.1 mm 5 m/s 698 mmHg 87%
03:00 +25°C° 0.1 mm 4 m/s 698 mmHg 87%
04:00 +25°C° 0.1 mm 4 m/s 698 mmHg 87%
05:00 +25°C° 0.1 mm 3 m/s 698 mmHg 88%
06:00 +25°C° 0.1 mm 5 m/s 699 mmHg 86%
07:00 +24°C° 0.1 mm 6 m/s 699 mmHg 84%
08:00 +26°C° 0.1 mm 7 m/s 699 mmHg 82%
09:00 +26°C° 0.2 mm 7 m/s 700 mmHg 81%
10:00 +26°C° 0.2 mm 7 m/s 700 mmHg 81%
11:00 +27°C° 0.2 mm 7 m/s 700 mmHg 80%
12:00 +27°C° 1 mm 8 m/s 699 mmHg 78%
13:00 +27°C° 1 mm 9 m/s 699 mmHg 77%
14:00 +28°C° 1 mm 9 m/s 699 mmHg 75%
15:00 +27°C° 0.3 mm 9 m/s 699 mmHg 77%
16:00 +26°C° 0.3 mm 8 m/s 698 mmHg 80%
17:00 +26°C° 0.3 mm 7 m/s 698 mmHg 82%
18:00 +24°C° 0 mm 7 m/s 699 mmHg 83%
19:00 +24°C° 0 mm 6 m/s 699 mmHg 85%
20:00 +24°C° 0 mm 6 m/s 700 mmHg 86%
21:00 +23°C° 0 mm 6 m/s 700 mmHg 87%
22:00 +23°C° 0 mm 5 m/s 700 mmHg 87%
23:00 +23°C° 0 mm 5 m/s 700 mmHg 87%
Arată mai mult